TGL971C LFPG-LPPT

Flight info

Callsign TGL971C
Flight time N/A
Altitude 37000
Route LGL UT176 TERPO DCT ERIGA DCT FUJTI/N0457F370 DCT ATLEN DCT ABUPI DCT PESUL DCT XAMAX
Aircraft A320/M-SDE3FGHIRWY/LB1

Departure

Time 2026-05-05 20:08
Airport Charles de Gaulle International Airport (LFPG)

Arrival

Time N/A
Airport Lisbon Humberto Delgado Airport (LPPT)
Time Latitude Longitude Altitude Speed Heading
2026-05-05 19:32 49.00558 2.56592 359 ft 0 kts 166°
2026-05-05 19:44 49.00559 2.56592 354 ft 0 kts 166°
2026-05-05 19:54 49.00568 2.56588 363 ft 3 kts 171°
2026-05-05 19:54 49.00591 2.56587 359 ft 3 kts 195°
2026-05-05 19:55 49.00611 2.56602 357 ft 3 kts 233°
2026-05-05 19:55 49.00618 2.56622 359 ft 0 kts 265°
2026-05-05 19:57 49.00616 2.56595 357 ft 5 kts 265°
2026-05-05 19:58 49.00612 2.56508 354 ft 11 kts 264°
2026-05-05 19:58 49.00605 2.56386 354 ft 11 kts 265°
2026-05-05 19:58 49.00599 2.56281 354 ft 9 kts 267°
2026-05-05 19:58 49.00595 2.56192 354 ft 8 kts 265°
2026-05-05 19:59 49.00590 2.56116 360 ft 7 kts 264°
2026-05-05 19:59 49.00579 2.56057 356 ft 5 kts 252°
2026-05-05 19:59 49.00570 2.56009 356 ft 5 kts 255°
2026-05-05 19:59 49.00564 2.55950 361 ft 6 kts 269°
2026-05-05 20:00 49.00568 2.55879 360 ft 7 kts 274°
2026-05-05 20:00 49.00566 2.55801 357 ft 7 kts 265°
2026-05-05 20:00 49.00562 2.55719 358 ft 9 kts 266°
2026-05-05 20:00 49.00556 2.55623 354 ft 10 kts 265°
2026-05-05 20:01 49.00550 2.55515 361 ft 11 kts 265°
2026-05-05 20:01 49.00535 2.55405 364 ft 11 kts 244°
2026-05-05 20:01 49.00477 2.55339 354 ft 11 kts 192°
2026-05-05 20:01 49.00403 2.55348 356 ft 11 kts 166°
2026-05-05 20:02 49.00331 2.55379 361 ft 10 kts 162°
2026-05-05 20:02 49.00272 2.55404 357 ft 7 kts 165°
2026-05-05 20:02 49.00233 2.55422 360 ft 4 kts 163°
2026-05-05 20:02 49.00216 2.55430 361 ft 1 kts 163°
2026-05-05 20:03 49.00212 2.55432 359 ft 2 kts 163°
2026-05-05 20:03 49.00193 2.55439 356 ft 4 kts 166°
2026-05-05 20:03 49.00160 2.55454 361 ft 6 kts 163°
2026-05-05 20:03 49.00114 2.55474 360 ft 8 kts 163°
2026-05-05 20:04 49.00059 2.55498 357 ft 9 kts 165°
2026-05-05 20:04 49.00000 2.55524 357 ft 8 kts 165°
2026-05-05 20:04 48.99947 2.55548 361 ft 8 kts 159°
2026-05-05 20:04 48.99902 2.55583 357 ft 7 kts 146°
2026-05-05 20:05 48.99866 2.55633 357 ft 8 kts 131°
2026-05-05 20:05 48.99839 2.55709 356 ft 9 kts 110°
2026-05-05 20:05 48.99815 2.55788 359 ft 7 kts 140°
2026-05-05 20:05 48.99784 2.55802 363 ft 4 kts 171°
2026-05-05 20:06 48.99760 2.55806 360 ft 3 kts 174°
2026-05-05 20:06 48.99734 2.55810 356 ft 4 kts 175°
2026-05-05 20:06 48.99692 2.55815 358 ft 8 kts 174°
2026-05-05 20:06 48.99635 2.55822 354 ft 7 kts 176°
2026-05-05 20:07 48.99606 2.55844 358 ft 2 kts 124°
2026-05-05 20:07 48.99602 2.55883 355 ft 9 kts 87°
2026-05-05 20:07 48.99621 2.56215 357 ft 63 kts 85°
2026-05-05 20:07 48.99675 2.57191 354 ft 120 kts 85°
2026-05-05 20:08 48.99755 2.58689 353 ft 163 kts 84°
2026-05-05 20:08 48.99842 2.60454 897 ft 163 kts 83°
2026-05-05 20:08 48.99916 2.62150 1665 ft 159 kts 80°
2026-05-05 20:08 48.99998 2.63804 2404 ft 154 kts 81°
2026-05-05 20:09 49.00078 2.65419 3051 ft 153 kts 82°
2026-05-05 20:09 49.00168 2.67043 3602 ft 156 kts 83°
2026-05-05 20:09 49.00269 2.68782 3918 ft 176 kts 83°
2026-05-05 20:09 49.00381 2.70750 4181 ft 197 kts 83°
2026-05-05 20:10 49.00502 2.72957 4412 ft 221 kts 83°
2026-05-05 20:10 49.00634 2.75418 4707 ft 245 kts 84°
2026-05-05 20:10 49.00717 2.78126 5145 ft 265 kts 94°
2026-05-05 20:10 49.00444 2.80949 5909 ft 272 kts 98°
2026-05-05 20:11 49.00139 2.83806 6721 ft 275 kts 99°
2026-05-05 20:11 48.99824 2.86703 7535 ft 279 kts 99°
2026-05-05 20:11 48.99505 2.89635 8357 ft 282 kts 100°
2026-05-05 20:11 48.99185 2.92606 9183 ft 286 kts 101°
2026-05-05 20:12 48.98862 2.95613 9953 ft 290 kts 102°
2026-05-05 20:12 48.98189 2.98516 10502 ft 299 kts 123°
2026-05-05 20:12 48.96692 3.00800 10711 ft 318 kts 150°
2026-05-05 20:12 48.94551 3.01892 10889 ft 337 kts 176°
2026-05-05 20:13 48.92203 3.01347 11190 ft 351 kts 204°
2026-05-05 20:13 48.90242 2.99142 11769 ft 356 kts 231°
2026-05-05 20:13 48.89104 2.95864 12446 ft 360 kts 251°
2026-05-05 20:13 48.88386 2.92203 13139 ft 363 kts 255°
2026-05-05 20:14 48.87807 2.88440 13784 ft 367 kts 257°
2026-05-05 20:14 48.87284 2.84636 14396 ft 370 kts 258°
2026-05-05 20:14 48.86754 2.80790 14997 ft 373 kts 257°
2026-05-05 20:14 48.86194 2.76928 15567 ft 377 kts 256°
2026-05-05 20:15 48.85599 2.73033 16121 ft 380 kts 256°
2026-05-05 20:15 48.84975 2.69116 16685 ft 384 kts 255°
2026-05-05 20:15 48.84332 2.65168 17219 ft 387 kts 255°
2026-05-05 20:15 48.83674 2.61191 17794 ft 390 kts 255°
2026-05-05 20:16 48.83009 2.57167 18226 ft 396 kts 256°
2026-05-05 20:16 48.82329 2.53033 18637 ft 400 kts 256°
2026-05-05 20:16 48.81654 2.48917 18801 ft 402 kts 256°
2026-05-05 20:16 48.80979 2.44802 18845 ft 402 kts 256°
2026-05-05 20:17 48.80346 2.40657 18928 ft 405 kts 261°
2026-05-05 20:17 48.79868 2.36446 19441 ft 406 kts 258°
2026-05-05 20:17 48.79255 2.32249 19898 ft 409 kts 256°
2026-05-05 20:17 48.78548 2.28042 20335 ft 413 kts 255°
2026-05-05 20:18 48.77805 2.23823 20769 ft 416 kts 255°
2026-05-05 20:18 48.77061 2.19563 21176 ft 420 kts 255°
2026-05-05 20:18 48.76331 2.15257 21572 ft 424 kts 256°
2026-05-05 20:18 48.75614 2.10899 21979 ft 428 kts 256°
2026-05-05 20:19 48.74907 2.06511 22407 ft 430 kts 257°
2026-05-05 20:19 48.74201 2.02088 22801 ft 434 kts 257°
2026-05-05 20:19 48.73489 1.97619 23166 ft 438 kts 257°
2026-05-05 20:19 48.72773 1.93130 23551 ft 440 kts 257°
2026-05-05 20:20 48.72046 1.88616 23866 ft 443 kts 256°
2026-05-05 20:20 48.71306 1.84075 24152 ft 446 kts 256°
2026-05-05 20:20 48.70555 1.79509 24487 ft 448 kts 256°
2026-05-05 20:20 48.69798 1.74926 24832 ft 450 kts 256°
2026-05-05 20:21 48.69038 1.70314 25148 ft 453 kts 256°
2026-05-05 20:21 48.68275 1.65682 25469 ft 455 kts 256°
2026-05-05 20:21 48.67507 1.61028 25806 ft 457 kts 256°
2026-05-05 20:21 48.66733 1.56355 26112 ft 459 kts 256°
2026-05-05 20:22 48.65952 1.51664 26400 ft 461 kts 256°
2026-05-05 20:22 48.65164 1.46947 26702 ft 463 kts 256°
2026-05-05 20:22 48.64369 1.42215 26983 ft 466 kts 256°
2026-05-05 20:22 48.63570 1.37454 27245 ft 468 kts 256°
2026-05-05 20:23 48.62767 1.32674 27500 ft 471 kts 256°
2026-05-05 20:23 48.61969 1.27926 27754 ft 474 kts 256°
2026-05-05 20:23 48.61154 1.23093 27998 ft 476 kts 256°
2026-05-05 20:23 48.60329 1.18230 28250 ft 479 kts 256°
2026-05-05 20:24 48.59500 1.13355 28583 ft 479 kts 256°
2026-05-05 20:24 48.58671 1.08492 28961 ft 479 kts 256°
2026-05-05 20:24 48.57843 1.03624 29332 ft 478 kts 256°
2026-05-05 20:24 48.57011 0.98756 29694 ft 478 kts 255°
2026-05-05 20:25 48.56176 0.93903 30052 ft 478 kts 255°
2026-05-05 20:25 48.55336 0.89046 30362 ft 477 kts 255°
2026-05-05 20:25 48.54498 0.84206 30714 ft 476 kts 255°
2026-05-05 20:25 48.53659 0.79379 31065 ft 475 kts 255°
2026-05-05 20:26 48.52823 0.74571 31429 ft 473 kts 255°
2026-05-05 20:26 48.51991 0.69781 31801 ft 471 kts 255°
2026-05-05 20:26 48.51160 0.65010 32180 ft 469 kts 254°
2026-05-05 20:26 48.50328 0.60256 32550 ft 468 kts 254°
2026-05-05 20:27 48.49497 0.55531 32920 ft 466 kts 254°
2026-05-05 20:27 48.48666 0.50816 33295 ft 464 kts 254°
2026-05-05 20:27 48.47838 0.46124 33659 ft 462 kts 254°
2026-05-05 20:27 48.47009 0.41451 33998 ft 461 kts 253°
2026-05-05 20:28 48.46180 0.36793 34276 ft 460 kts 253°
2026-05-05 20:28 48.45350 0.32141 34552 ft 459 kts 253°
2026-05-05 20:28 48.44521 0.27504 34811 ft 459 kts 253°
2026-05-05 20:28 48.43692 0.22867 35071 ft 458 kts 253°
2026-05-05 20:29 48.42859 0.18241 35295 ft 458 kts 253°
2026-05-05 20:29 48.42026 0.13618 35560 ft 457 kts 253°
2026-05-05 20:29 48.41196 0.09011 35813 ft 456 kts 253°
2026-05-05 20:29 48.40366 0.04413 36036 ft 455 kts 253°
2026-05-05 20:30 48.39535 -0.00180 36273 ft 454 kts 253°
2026-05-05 20:30 48.38705 -0.04758 36517 ft 453 kts 253°
2026-05-05 20:30 48.37878 -0.09314 36765 ft 451 kts 253°
2026-05-05 20:30 48.37047 -0.13872 36896 ft 452 kts 253°
2026-05-05 20:31 48.36214 -0.18432 36921 ft 453 kts 253°
2026-05-05 20:31 48.33638 -0.26987 36918 ft 449 kts 234°
2026-05-05 20:32 48.29656 -0.34202 36917 ft 449 kts 227°
2026-05-05 20:32 48.25553 -0.41268 36923 ft 449 kts 228°
2026-05-05 20:33 48.21480 -0.48289 36921 ft 449 kts 228°
2026-05-05 20:33 48.17372 -0.55328 36922 ft 449 kts 228°
2026-05-05 20:34 48.13253 -0.62353 36919 ft 449 kts 227°
2026-05-05 20:34 48.09130 -0.69383 36918 ft 449 kts 227°
2026-05-05 20:35 48.05006 -0.76397 36921 ft 449 kts 227°
2026-05-05 20:35 48.00876 -0.83390 36925 ft 449 kts 227°
2026-05-05 20:36 47.97440 -0.89197 36925 ft 449 kts 228°
2026-05-05 20:36 47.93299 -0.96194 36920 ft 450 kts 228°
2026-05-05 20:37 47.89152 -1.03181 36923 ft 450 kts 227°
2026-05-05 20:37 47.84992 -1.10157 36918 ft 450 kts 227°
2026-05-05 20:38 47.80828 -1.17110 36917 ft 450 kts 227°
2026-05-05 20:38 47.76663 -1.24071 36925 ft 450 kts 228°
2026-05-05 20:39 47.72495 -1.31020 36924 ft 451 kts 227°
2026-05-05 20:39 47.68311 -1.37955 36919 ft 451 kts 227°
2026-05-05 20:40 47.64126 -1.44875 36918 ft 451 kts 227°
2026-05-05 20:40 47.59934 -1.51797 36916 ft 451 kts 227°
2026-05-05 20:41 47.55742 -1.58724 36921 ft 451 kts 227°
2026-05-05 20:41 47.51547 -1.65633 36921 ft 451 kts 227°
2026-05-05 20:42 47.47349 -1.72536 36926 ft 452 kts 227°
2026-05-05 20:42 47.43139 -1.79433 36924 ft 452 kts 227°
2026-05-05 20:43 47.38918 -1.86329 36932 ft 453 kts 227°
2026-05-05 20:43 47.34515 -1.92943 36954 ft 452 kts 218°
2026-05-05 20:44 47.29228 -1.97939 36958 ft 452 kts 211°
2026-05-05 20:44 47.23860 -2.02748 36957 ft 452 kts 211°
2026-05-05 20:45 47.15801 -2.09952 36945 ft 452 kts 211°
2026-05-05 20:45 47.10455 -2.14699 36928 ft 452 kts 211°
2026-05-05 20:46 47.05068 -2.19479 36925 ft 453 kts 211°
2026-05-05 20:46 46.99669 -2.24257 36925 ft 453 kts 211°
2026-05-05 20:47 46.94268 -2.29033 36937 ft 454 kts 211°
2026-05-05 20:47 46.88856 -2.33801 36937 ft 454 kts 211°
2026-05-05 20:48 46.83442 -2.38547 36938 ft 454 kts 211°
2026-05-05 20:48 46.78030 -2.43303 36937 ft 454 kts 211°
2026-05-05 20:49 46.72607 -2.48064 36939 ft 455 kts 211°
2026-05-05 20:49 46.67172 -2.52803 36940 ft 456 kts 211°
2026-05-05 20:50 46.61723 -2.57541 36948 ft 456 kts 211°
2026-05-05 20:50 46.56277 -2.62276 36956 ft 456 kts 211°
2026-05-05 20:51 46.50827 -2.67014 36958 ft 456 kts 212°
2026-05-05 20:51 46.45375 -2.71737 36956 ft 456 kts 211°
2026-05-05 20:52 46.39922 -2.76441 36964 ft 456 kts 211°
2026-05-05 20:52 46.34501 -2.81099 36958 ft 456 kts 211°
2026-05-05 20:53 46.29042 -2.85788 36955 ft 457 kts 212°
2026-05-05 20:53 46.23921 -2.91180 36956 ft 456 kts 221°
2026-05-05 20:54 46.19088 -2.97112 36959 ft 456 kts 221°
2026-05-05 20:54 46.14232 -3.03026 36968 ft 457 kts 221°
2026-05-05 20:55 46.09364 -3.08921 36980 ft 457 kts 221°
2026-05-05 20:55 46.04506 -3.14804 36981 ft 456 kts 221°
2026-05-05 20:56 45.99657 -3.20683 36978 ft 456 kts 221°
2026-05-05 20:56 45.94802 -3.26559 36976 ft 456 kts 221°
2026-05-05 20:57 45.89941 -3.32428 36981 ft 456 kts 221°
2026-05-05 20:57 45.85076 -3.38266 36988 ft 456 kts 221°
2026-05-05 20:58 45.80210 -3.44097 36982 ft 456 kts 221°
2026-05-05 20:58 45.75346 -3.49906 36990 ft 455 kts 221°
2026-05-05 20:59 45.70477 -3.55713 36977 ft 455 kts 221°
2026-05-05 20:59 45.65615 -3.61507 36983 ft 455 kts 221°
2026-05-05 21:00 45.60776 -3.67259 36989 ft 455 kts 221°
2026-05-05 21:00 45.55898 -3.73042 36997 ft 456 kts 221°
2026-05-05 21:01 45.51015 -3.78812 36993 ft 456 kts 221°
2026-05-05 21:01 45.46135 -3.84577 37000 ft 456 kts 221°
2026-05-05 21:02 45.41243 -3.90326 37003 ft 456 kts 221°
2026-05-05 21:02 45.36347 -3.96076 37001 ft 456 kts 221°
2026-05-05 21:03 45.31452 -4.01824 37002 ft 457 kts 221°
2026-05-05 21:03 45.26548 -4.07558 37001 ft 456 kts 221°
2026-05-05 21:04 45.21647 -4.13270 37007 ft 456 kts 221°
2026-05-05 21:04 45.16741 -4.18965 37017 ft 456 kts 220°
2026-05-05 21:05 45.11861 -4.24619 37014 ft 456 kts 221°
2026-05-05 21:05 45.06955 -4.30310 37024 ft 456 kts 221°
2026-05-05 21:06 45.02047 -4.35986 37026 ft 456 kts 221°
2026-05-05 21:06 44.97140 -4.41650 37027 ft 455 kts 221°
2026-05-05 21:07 44.92232 -4.47297 37031 ft 455 kts 221°
2026-05-05 21:07 44.87315 -4.52934 37032 ft 455 kts 221°
2026-05-05 21:08 44.82405 -4.58550 37033 ft 454 kts 221°
2026-05-05 21:08 44.77500 -4.64158 37033 ft 454 kts 220°
2026-05-05 21:09 44.72598 -4.69745 37032 ft 454 kts 220°
2026-05-05 21:09 44.67686 -4.75319 37036 ft 454 kts 220°
2026-05-05 21:10 44.62777 -4.80885 37034 ft 454 kts 220°
2026-05-05 21:10 44.57864 -4.86453 37034 ft 454 kts 220°
2026-05-05 21:11 44.52954 -4.92013 37038 ft 454 kts 220°
2026-05-05 21:11 44.47810 -4.97141 37029 ft 455 kts 214°
2026-05-05 21:12 44.42476 -5.01807 37040 ft 455 kts 214°
2026-05-05 21:12 44.37105 -5.06490 37041 ft 455 kts 214°
2026-05-05 21:13 44.31731 -5.11171 37044 ft 455 kts 214°
2026-05-05 21:13 44.26355 -5.15841 37047 ft 455 kts 214°
2026-05-05 21:14 44.20981 -5.20512 37059 ft 455 kts 214°
2026-05-05 21:14 44.15614 -5.25162 37065 ft 454 kts 214°
2026-05-05 21:15 44.10242 -5.29793 37049 ft 454 kts 214°
2026-05-05 21:15 44.04879 -5.34407 37054 ft 453 kts 214°
2026-05-05 21:16 43.99513 -5.39022 37054 ft 453 kts 214°
2026-05-05 21:16 43.94142 -5.43626 37055 ft 454 kts 214°
2026-05-05 21:17 43.88773 -5.48228 37044 ft 454 kts 214°
2026-05-05 21:17 43.83401 -5.52824 37065 ft 453 kts 214°
2026-05-05 21:18 43.78033 -5.57403 37080 ft 453 kts 214°
2026-05-05 21:18 43.72672 -5.61970 37076 ft 453 kts 214°
2026-05-05 21:19 43.67305 -5.66524 37082 ft 452 kts 215°
2026-05-05 21:19 43.61940 -5.71060 37085 ft 452 kts 215°
2026-05-05 21:20 43.56614 -5.75555 37093 ft 452 kts 215°
2026-05-05 21:20 43.51250 -5.80081 37097 ft 452 kts 215°
2026-05-05 21:21 43.45886 -5.84602 37085 ft 452 kts 215°
2026-05-05 21:21 43.40527 -5.89113 37096 ft 451 kts 215°
2026-05-05 21:22 43.35166 -5.93612 37102 ft 451 kts 215°
2026-05-05 21:22 43.29805 -5.98088 37105 ft 451 kts 215°
2026-05-05 21:23 43.24446 -6.02553 37099 ft 450 kts 215°
2026-05-05 21:23 43.19091 -6.07011 37118 ft 450 kts 215°
2026-05-05 21:24 43.13746 -6.11457 37110 ft 449 kts 216°
2026-05-05 21:24 43.08403 -6.15886 37111 ft 448 kts 215°
2026-05-05 21:25 43.03068 -6.20300 37100 ft 448 kts 216°
2026-05-05 21:25 42.97741 -6.24707 37106 ft 447 kts 216°
2026-05-05 21:26 42.93317 -6.28361 37111 ft 447 kts 216°
2026-05-05 21:26 42.87999 -6.32745 37111 ft 447 kts 216°
2026-05-05 21:27 42.82669 -6.37119 37089 ft 447 kts 215°
2026-05-05 21:27 42.77344 -6.41480 37111 ft 446 kts 215°
2026-05-05 21:28 42.72032 -6.45822 37115 ft 445 kts 215°
2026-05-05 21:28 42.66723 -6.50159 37104 ft 445 kts 215°
2026-05-05 21:29 42.61406 -6.54485 37110 ft 445 kts 215°
2026-05-05 21:29 42.56094 -6.58801 37106 ft 445 kts 215°
2026-05-05 21:30 42.50780 -6.63113 37109 ft 445 kts 215°
2026-05-05 21:30 42.45469 -6.67431 37108 ft 445 kts 215°
2026-05-05 21:31 42.40155 -6.71730 37095 ft 445 kts 215°
2026-05-05 21:31 42.34841 -6.76001 37108 ft 444 kts 215°
2026-05-05 21:32 42.29536 -6.80272 37108 ft 444 kts 215°
2026-05-05 21:32 42.24235 -6.84527 37101 ft 443 kts 215°
2026-05-05 21:33 42.18942 -6.88772 37090 ft 442 kts 215°
2026-05-05 21:33 42.13654 -6.93013 37099 ft 442 kts 215°
2026-05-05 21:34 42.08360 -6.97248 37114 ft 442 kts 215°
2026-05-05 21:34 42.03067 -7.01471 37112 ft 442 kts 215°
2026-05-05 21:35 41.97777 -7.05681 37081 ft 442 kts 215°
2026-05-05 21:35 41.92484 -7.09876 37100 ft 441 kts 215°
2026-05-05 21:36 41.87200 -7.14058 37099 ft 441 kts 215°
2026-05-05 21:36 41.81960 -7.18201 37096 ft 440 kts 215°
2026-05-05 21:37 41.76690 -7.22363 37094 ft 440 kts 215°
2026-05-05 21:37 41.71711 -7.27098 37092 ft 434 kts 222°
2026-05-05 21:38 41.66960 -7.31989 37094 ft 434 kts 222°
2026-05-05 21:38 41.62173 -7.36893 37105 ft 434 kts 221°
2026-05-05 21:39 41.57380 -7.41793 37100 ft 433 kts 222°
2026-05-05 21:39 41.52594 -7.46686 37079 ft 433 kts 221°
2026-05-05 21:40 41.47806 -7.51561 37101 ft 432 kts 221°
2026-05-05 21:40 41.43027 -7.56409 37106 ft 431 kts 221°
2026-05-05 21:41 41.38255 -7.61253 37105 ft 431 kts 221°
2026-05-05 21:41 41.33486 -7.66090 37106 ft 431 kts 221°
2026-05-05 21:42 41.28711 -7.70914 37094 ft 431 kts 221°
2026-05-05 21:42 41.23945 -7.75725 37100 ft 430 kts 221°
2026-05-05 21:43 41.19178 -7.80527 37099 ft 430 kts 221°
2026-05-05 21:43 41.14412 -7.85312 37099 ft 430 kts 221°
2026-05-05 21:44 41.09632 -7.90095 37107 ft 430 kts 221°
2026-05-05 21:44 41.04857 -7.94867 37088 ft 429 kts 221°
2026-05-05 21:45 41.00098 -7.99630 37103 ft 428 kts 221°
2026-05-05 21:45 40.95348 -8.04382 37108 ft 428 kts 221°
2026-05-05 21:46 40.90598 -8.09117 37111 ft 427 kts 221°
2026-05-05 21:46 40.85358 -8.12934 37110 ft 437 kts 205°
2026-05-05 21:47 40.79671 -8.15752 37109 ft 436 kts 206°
2026-05-05 21:47 40.74000 -8.18590 37112 ft 436 kts 206°
2026-05-05 21:48 40.68326 -8.21434 37123 ft 436 kts 206°
2026-05-05 21:48 40.62656 -8.24268 37115 ft 436 kts 206°
2026-05-05 21:49 40.56976 -8.27091 37107 ft 436 kts 206°
2026-05-05 21:49 40.51292 -8.29908 36769 ft 436 kts 206°
2026-05-05 21:50 40.48457 -8.31312 36513 ft 435 kts 206°
2026-05-05 21:50 40.45627 -8.32716 36265 ft 434 kts 206°
2026-05-05 21:50 40.42798 -8.34119 36015 ft 434 kts 206°
2026-05-05 21:50 40.39974 -8.35516 35748 ft 434 kts 206°
2026-05-05 21:51 40.37150 -8.36910 35506 ft 433 kts 206°
2026-05-05 21:51 40.34364 -8.38281 35265 ft 433 kts 206°
2026-05-05 21:51 40.31546 -8.39668 35022 ft 433 kts 206°
2026-05-05 21:51 40.28731 -8.41053 34782 ft 432 kts 206°
2026-05-05 21:52 40.23070 -8.43842 34050 ft 433 kts 206°
2026-05-05 21:52 40.20236 -8.45239 33070 ft 436 kts 206°
2026-05-05 21:52 40.17427 -8.46622 32186 ft 438 kts 206°
2026-05-05 21:53 40.14562 -8.48029 31211 ft 442 kts 206°
2026-05-05 21:53 40.11674 -8.49441 30273 ft 445 kts 205°
2026-05-05 21:53 40.08757 -8.50862 29151 ft 449 kts 205°
2026-05-05 21:53 40.05858 -8.52249 28809 ft 437 kts 202°
2026-05-05 21:54 40.02927 -8.53143 28580 ft 430 kts 193°
2026-05-05 21:54 39.99953 -8.53351 28300 ft 429 kts 183°
2026-05-05 21:54 39.96979 -8.53111 28030 ft 426 kts 181°
2026-05-05 21:54 39.94029 -8.52862 27772 ft 425 kts 181°
2026-05-05 21:55 39.91089 -8.52617 27352 ft 422 kts 181°
2026-05-05 21:55 39.88171 -8.52378 26940 ft 419 kts 181°
2026-05-05 21:55 39.85272 -8.52141 26523 ft 416 kts 181°
2026-05-05 21:55 39.82393 -8.51898 26118 ft 412 kts 181°
2026-05-05 21:56 39.79579 -8.51665 25963 ft 397 kts 184°
2026-05-05 21:56 39.76903 -8.51894 25831 ft 375 kts 196°
2026-05-05 21:56 39.74443 -8.52763 25560 ft 360 kts 207°
2026-05-05 21:56 39.72244 -8.54175 25338 ft 349 kts 217°
2026-05-05 21:57 39.70179 -8.55813 25054 ft 347 kts 216°
2026-05-05 21:57 39.68122 -8.57438 24764 ft 345 kts 216°
2026-05-05 21:57 39.66069 -8.59055 24471 ft 344 kts 216°
2026-05-05 21:57 39.64027 -8.60662 24179 ft 343 kts 216°
2026-05-05 21:58 39.61988 -8.62264 23885 ft 342 kts 216°
2026-05-05 21:58 39.59955 -8.63862 23576 ft 341 kts 216°
2026-05-05 21:58 39.57927 -8.65452 23280 ft 340 kts 216°
2026-05-05 21:58 39.55906 -8.67039 22990 ft 339 kts 216°
2026-05-05 21:59 39.53889 -8.68620 22701 ft 338 kts 216°
2026-05-05 21:59 39.51878 -8.70196 22411 ft 337 kts 216°
2026-05-05 21:59 39.49878 -8.71762 22122 ft 336 kts 216°
2026-05-05 21:59 39.47881 -8.73325 21847 ft 335 kts 216°
2026-05-05 22:00 39.45891 -8.74880 21564 ft 334 kts 215°
2026-05-05 22:00 39.43907 -8.76426 21283 ft 332 kts 215°
2026-05-05 22:00 39.41929 -8.77966 21001 ft 331 kts 215°
2026-05-05 22:00 39.40021 -8.79610 20733 ft 327 kts 224°
2026-05-05 22:01 39.38425 -8.81660 20458 ft 322 kts 233°
2026-05-05 22:01 39.36956 -8.83842 20178 ft 321 kts 232°
2026-05-05 22:01 39.35484 -8.86009 19910 ft 321 kts 232°
2026-05-05 22:01 39.34010 -8.88170 19640 ft 320 kts 232°
2026-05-05 22:02 39.32540 -8.90323 19367 ft 319 kts 232°
2026-05-05 22:02 39.31075 -8.92465 19100 ft 318 kts 232°
2026-05-05 22:02 39.29633 -8.94578 18840 ft 317 kts 232°
2026-05-05 22:02 39.28180 -8.96710 18572 ft 316 kts 232°
2026-05-05 22:03 39.26727 -8.98839 18294 ft 315 kts 233°
2026-05-05 22:03 39.25259 -9.00987 18009 ft 315 kts 232°
2026-05-05 22:03 39.23812 -9.03100 17743 ft 314 kts 232°
2026-05-05 22:03 39.22389 -9.05178 17458 ft 313 kts 232°
2026-05-05 22:04 39.20950 -9.07277 17212 ft 313 kts 232°
2026-05-05 22:04 39.19513 -9.09375 16947 ft 312 kts 232°
2026-05-05 22:04 39.18080 -9.11467 16689 ft 311 kts 232°
2026-05-05 22:04 39.16650 -9.13555 16426 ft 310 kts 232°
2026-05-05 22:05 39.15223 -9.15636 16169 ft 309 kts 232°
2026-05-05 22:05 39.13801 -9.17706 15911 ft 308 kts 232°
2026-05-05 22:05 39.12379 -9.19772 15637 ft 307 kts 232°
2026-05-05 22:05 39.10965 -9.21829 15384 ft 307 kts 232°
2026-05-05 22:06 39.09272 -9.23725 15143 ft 334 kts 213°
2026-05-05 22:06 39.07155 -9.24937 14892 ft 331 kts 205°